Location: Cran-Gévrier
(45.9039°N, 6.1012°E)
Time: 10:12:11
(UTC+00:00)

Feng Yun 1-1 Rocket - Pass Details

Date: 09 February 2023
Orbit: 830 x 933 km, 99.1° (Epoch: 30 March)

Event Time Altitude Azimuth Distance (km) Brightness Sun altitude
Rises 18:12:06 0° 145° (SE) 3,426 7.1 -14.3°
Reaches altitude 10° 18:14:34 10° 139° (SE) 2,479 6.3 -14.7°
Maximum altitude 18:19:46 46° 68° (ENE) 1,123 4.4 -15.6°
Drops below altitude 10° 18:24:55 10° 356° (N) 2,454 6.6 -16.5°
Sets 18:27:20 0° 351° (N) 3,388 7.4 -16.9°
